RH
67 70 73 74 74 77 75 72 72 68 63 61 58 59 62 67 77 86 92 98 100 98 99 99 101 99 96 97 99 97 92 90 96 98 97 94 91 88 82 71 65 63 63 63 66 75 73 52 41 40 32 25 26 29 32 34 38 37 34 35 35 36 38 29 19 19 19 17 17 17 17 17 17 16 13 13 14 13 15 21 19 17 20 21 21 27 32
59 69 70 73 77 78 74 70 71 71 68 63 58 57 59 62 73 82 88 97 100 100 99 100 101 93 85 88 94 93 90 87 90 94 91 83 78 77 75 68 62 60 63 65 66 74 73 51 38 35 28 23 25 29 32 34 37 35 32 34 35 37 36 26 21 25 22 19 20 18 16 17 15 14 13 12 13 14 15 16 17 17 17 18 24 32 37
46 64 69 71 76 78 73 66 65 69 70 66 60 58 57 58 69 80 87 93 99 100 99 100 98 85 77 84 90 90 89 83 80 86 88 77 69 70 72 72 68 63 66 65 56 59 62 52 39 32 25 23 26 30 34 36 37 35 35 37 37 36 35 28 28 35 33 29 27 21 16 15 14 13 12 12 11 12 15 16 17 19 19 17 21 28 35
31 51 66 70 74 77 72 64 60 62 65 64 60 58 56 56 65 77 83 90 97 100 100 100 96 87 83 86 89 89 86 77 73 83 88 80 74 74 72 72 74 69 64 58 48 46 51 50 43 34 27 24 27 34 41 39 35 34 36 40 39 36 36 32 29 28 26 24 22 17 14 14 14 12 11 13 12 11 14 16 17 18 18 19 18 20 30
27 35 55 67 72 75 71 63 59 57 57 60 61 57 53 55 64 76 86 94 97 98 99 100 99 96 91 86 85 86 82 75 74 80 83 82 81 75 66 69 78 72 59 53 47 42 42 42 40 36 32 28 31 38 44 39 31 32 40 44 40 36 37 36 31 24 21 20 17 15 14 13 13 13 12 13 12 12 14 15 15 15 18 24 23 19 25
36 27 40 59 69 73 71 64 59 55 52 56 60 56 50 50 58 71 86 95 97 97 98 100 99 99 95 85 78 77 76 74 76 76 78 88 93 84 70 69 73 64 52 53 53 44 38 38 40 40 34 30 34 38 41 39 32 32 41 45 41 39 38 36 33 27 23 21 17 15 15 13 13 13 13 13 13 13 14 14 15 15 17 21 26 25 25
51 34 30 46 65 72 71 66 61 56 52 56 59 54 47 46 51 61 75 88 97 99 98 99 100 100 99 91 80 75 72 73 78 77 79 90 93 82 69 62 63 60 54 54 56 51 46 45 45 45 38 34 37 39 41 44 39 36 43 46 42 40 38 35 34 30 27 24 18 16 15 13 13 13 13 13 13 12 12 13 14 18 18 19 25 29 27
59 49 33 34 51 67 71 68 63 58 54 57 58 50 43 44 48 54 62 75 90 98 96 96 98 99 98 96 91 87 82 80 81 77 76 80 76 71 73 70 66 67 63 59 56 53 54 54 48 45 44 41 39 36 37 44 45 43 46 46 40 36 36 36 33 30 30 27 18 14 15 14 14 13 14 13 13 13 12 12 13 17 21 24 28 32 31
58 59 47 33 34 52 67 69 64 59 55 54 54 49 43 43 48 52 56 64 80 92 93 90 92 94 95 97 98 98 96 92 84 73 71 75 70 72 84 81 69 65 62 59 59 56 55 53 46 45 47 43 38 34 33 40 46 45 44 43 39 35 36 36 32 31 33 29 21 17 14 13 14 13 13 14 13 13 13 12 13 14 20 32 38 36 34
55 59 58 46 32 36 56 69 67 61 57 54 52 51 45 40 43 49 53 59 71 85 89 87 90 95 98 99 100 99 100 97 84 73 77 84 79 79 86 82 72 70 65 57 56 57 55 48 42 43 42 37 35 35 34 37 42 43 41 41 37 35 36 36 33 33 34 32 31 24 15 17 20 15 13 14 12 13 14 13 13 12 16 29 35 32 31
51 56 59 57 44 33 40 59 69 66 60 56 52 52 50 41 39 44 49 53 61 73 83 87 91 95 96 98 100 100 100 97 86 78 81 84 79 77 80 79 74 75 74 65 55 52 53 48 41 40 37 33 34 35 36 38 40 41 41 40 39 37 36 37 36 35 35 36 35 27 24 32 33 22 17 17 13 14 15 14 14 13 14 23 30 31 34
41 53 57 59 56 43 33 42 61 68 65 60 55 54 54 48 43 42 45 49 52 59 74 86 92 95 94 94 97 99 100 97 91 86 83 81 79 76 76 80 78 74 76 73 60 49 47 44 40 37 33 30 29 30 35 39 38 39 40 38 39 39 36 35 35 35 36 36 32 31 37 45 38 27 25 25 20 19 18 16 16 15 14 19 27 32 33
28 45 55 57 59 56 42 32 43 60 68 65 59 57 56 53 49 44 43 48 50 53 65 78 87 92 91 87 89 94 99 99 97 93 85 80 81 77 69 70 70 63 62 64 56 47 43 39 36 33 29 27 26 25 29 34 34 35 36 35 34 35 36 36 35 36 37 36 36 41 48 50 41 33 32 31 28 24 19 18 21 20 18 20 21 22 26
19 33 50 57 57 60 55 40 31 42 60 67 63 59 56 55 54 48 44 47 48 53 64 72 77 81 82 81 81 84 90 93 94 92 87 82 80 72 60 58 58 54 54 56 49 42 40 36 33 30 27 26 26 24 25 28 29 29 32 34 31 29 35 38 36 37 38 37 39 42 43 44 40 35 33 32 30 25 19 20 25 23 21 24 22 19 24
17 23 39 54 57 58 60 54 38 30 42 58 64 62 58 57 56 52 49 48 46 49 61 70 72 74 75 76 77 75 77 81 86 89 90 89 84 72 58 57 59 56 55 54 46 39 39 38 36 34 32 30 28 26 25 26 26 26 29 33 31 30 36 40 38 36 34 38 47 50 44 40 35 31 30 30 29 27 20 21 27 27 23 24 25 24 25
17 19 27 42 55 59 59 60 52 36 29 40 55 62 61 58 57 56 53 50 46 47 56 66 71 73 73 74 77 78 76 73 76 82 83 81 79 71 60 58 58 56 55 51 44 42 42 43 44 42 39 35 30 27 27 26 25 25 27 29 30 30 34 37 38 36 31 32 42 47 43 36 30 29 29 27 28 29 23 22 29 31 26 23 22 23 25
18 18 19 27 41 54 59 61 60 50 35 28 38 53 60 59 57 57 55 51 47 48 53 61 70 76 75 72 73 77 76 69 68 74 77 77 76 65 54 53 54 55 56 52 48 47 46 45 47 47 43 38 33 31 30 28 26 27 27 29 29 29 30 32 36 37 32 28 32 37 37 34 32 33 31 25 26 27 24 31 39 34 27 26 23 21 23
21 19 19 20 25 37 51 59 62 60 50 34 27 36 50 57 56 55 55 52 49 48 51 57 68 77 80 78 76 77 76 69 64 67 72 79 82 70 53 49 50 51 55 55 52 52 50 47 49 52 48 41 37 37 34 29 27 28 28 29 30 30 31 32 34 36 34 29 32 38 39 36 36 37 34 29 28 26 25 38 47 37 27 27 26 23 23
25 23 21 20 19 22 32 46 57 62 60 49 34 25 32 46 53 54 55 53 50 48 49 57 70 78 83 85 83 84 84 76 68 66 64 67 78 79 65 52 49 51 55 55 56 57 55 52 52 54 52 46 43 44 41 33 30 28 27 28 30 31 33 34 34 36 33 29 35 45 46 41 37 37 36 32 32 32 32 38 44 39 32 30 28 26 26
27 27 24 22 22 20 20 28 41 54 61 61 50 33 24 30 43 51 53 52 48 45 44 53 69 78 83 83 79 77 80 78 71 69 67 65 71 77 75 64 54 50 49 49 53 60 60 57 54 52 53 54 50 48 47 42 36 32 29 30 30 31 34 33 33 35 32 30 40 53 55 48 39 36 37 35 33 36 38 39 40 39 36 33 29 27 28
27 29 28 25 24 22 20 21 26 38 51 60 61 51 33 23 29 41 49 50 48 44 41 47 63 78 83 81 76 73 72 73 73 71 70 72 71 71 79 82 70 60 58 57 58 63 64 61 58 56 58 60 56 52 51 48 43 39 36 35 35 34 34 35 34 34 32 30 36 45 49 48 43 40 41 40 35 35 38 41 43 42 39 37 33 28 26
28 29 30 29 27 24 23 22 21 25 36 49 60 62 49 31 23 28 40 48 48 45 41 39 50 69 79 77 75 74 70 71 79 81 75 77 79 73 76 87 85 78 75 72 70 72 69 64 63 65 66 66 61 56 54 52 51 49 43 41 42 39 39 42 40 35 32 33 35 38 43 48 47 45 46 45 40 38 40 43 45 45 42 40 37 34 33
30 30 31 31 31 28 26 24 23 22 26 35 50 61 61 50 32 22 29 40 45 47 46 41 43 58 70 73 73 74 70 67 76 84 79 77 82 76 71 79 86 86 83 78 75 77 73 67 66 67 69 71 67 60 55 54 56 56 52 50 52 50 48 51 48 40 39 46 48 47 48 49 50 51 53 50 45 43 45 46 46 44 43 42 39 37 39
31 32 33 33 33 32 30 27 25 24 23 27 40 54 63 62 48 30 23 28 37 44 45 45 45 47 53 63 69 73 76 71 67 73 76 75 78 78 72 72 78 85 88 83 77 74 73 72 73 72 73 77 74 66 62 60 58 59 59 57 57 56 56 56 53 48 50 58 63 64 63 61 59 60 61 58 51 47 47 46 45 43 43 42 39 38 39
32 33 35 36 36 34 33 31 28 26 24 24 32 47 61 66 59 45 28 21 28 39 41 44 48 43 40 48 55 61 71 71 63 64 71 71 71 74 72 68 67 77 88 87 77 74 74 76 80 80 78 79 78 76 76 73 64 59 61 61 59 59 60 60 56 51 51 56 61 64 65 64 62 62 62 60 57 54 50 47 45 43 40 38 37 36 36
35 36 37 39 40 38 36 34 31 28 25 24 29 41 57 65 64 56 40 23 19 30 37 41 44 44 40 39 40 47 62 69 67 67 68 65 65 69 73 69 62 66 81 85 80 79 80 78 78 78 77 78 80 81 83 81 72 64 61 63 64 64 62 61 58 53 52 55 57 57 57 57 57 58 57 55 54 54 52 50 49 45 39 35 33 31 31
38 40 41 42 43 42 39 36 34 31 27 25 29 38 51 62 65 61 49 30 18 23 35 40 42 44 42 33 29 42 60 67 67 66 62 59 60 63 67 67 61 63 77 84 81 81 84 83 79 75 74 75 75 75 78 79 76 71 66 65 67 67 65 63 60 56 56 58 60 60 57 55 55 54 53 52 51 49 47 46 44 41 37 33 31 29 28
41 43 45 46 46 46 43 38 36 34 29 26 29 39 49 59 65 63 52 35 22 19 25 33 38 42 41 32 28 43 59 63 61 61 59 59 58 57 58 59 58 64 77 85 84 83 83 84 82 78 78 78 75 74 76 75 73 70 67 66 65 64 64 63 61 59 59 59 60 59 56 54 55 55 54 54 53 49 45 43 40 38 37 36 35 32 29
45 47 49 50 51 49 44 39 36 33 30 27 29 38 51 59 62 62 55 42 30 21 19 24 32 39 40 33 30 40 51 56 58 58 58 57 55 54 55 53 53 61 73 81 86 87 84 82 81 79 79 79 76 76 78 75 71 69 68 68 64 58 57 60 61 60 60 59 59 59 55 53 54 54 54 56 57 55 53 48 44 41 40 41 41 38 33
49 51 53 54 54 50 43 39 36 32 31 29 26 34 51 61 60 59 58 51 40 30 23 20 25 37 42 35 29 35 47 55 59 58 56 56 55 54 52 48 50 61 72 78 83 86 84 80 77 76 78 78 74 74 77 76 74 72 69 68 65 58 56 59 60 60 61 61 60 59 55 53 53 53 54 58 59 57 53 47 44 43 43 42 43 42 38
52 55 57 57 55 48 40 37 34 31 30 30 26 32 50 62 62 63 68 66 55 44 35 26 25 35 42 36 33 42 53 59 61 58 54 54 53 51 50 49 53 65 72 73 76 80 79 77 73 73 78 79 74 72 76 76 73 72 70 69 66 62 61 62 62 62 64 63 62 60 57 55 54 54 55 57 55 52 50 47 48 51 51 49 48 45 43
56 59 60 58 52 44 37 34 32 30 30 30 27 31 44 58 66 70 71 67 55 42 35 30 28 36 42 37 35 46 57 60 59 55 52 52 52 51 53 54 56 63 68 69 72 72 70 71 72 72 75 77 72 71 76 76 72 71 71 69 67 66 65 65 66 66 65 62 60 58 56 54 52 50 50 52 52 51 51 51 53 58 59 57 53 49 48
62 62 61 55 47 40 35 32 30 30 30 30 30 33 43 57 69 72 67 58 45 31 26 26 28 37 46 41 33 39 49 54 55 53 51 52 53 52 53 54 54 56 59 59 61 61 60 63 68 68 68 70 70 69 71 72 70 69 68 66 64 65 68 70 71 68 63 58 54 52 49 49 49 47 48 50 51 52 52 52 55 61 63 62 59 54 51
66 63 56 49 42 37 32 29 28 30 31 30 35 43 51 58 65 65 59 51 37 24 21 22 22 31 45 47 44 47 50 50 52 52 51 53 54 51 52 54 54 54 54 53 54 55 56 61 67 67 66 69 68 64 63 65 67 67 64 60 60 67 73 74 69 63 55 48 46 47 46 45 46 49 53 57 59 58 58 57 58 61 63 63 62 59 55
63 57 50 43 37 32 29 28 30 32 32 34 42 52 57 60 63 61 54 45 34 24 21 21 21 28 40 46 51 59 58 53 54 55 52 52 53 49 48 51 50 49 51 53 51 49 51 59 65 65 65 66 63 59 58 61 64 65 64 62 65 73 77 71 62 56 51 42 37 38 40 41 42 45 49 53 55 55 55 56 58 61 63 62 60 59 57
55 50 45 37 31 29 30 33 33 34 38 44 53 63 69 69 68 62 51 41 34 28 24 21 19 25 36 43 51 60 61 56 56 55 51 50 51 48 44 43 43 44 47 48 46 44 46 52 58 60 61 62 60 57 57 58 59 62 63 62 65 70 71 65 59 56 53 47 41 38 35 33 34 37 39 42 44 44 44 45 49 55 60 61 60 59 57
48 44 36 31 30 32 35 37 38 39 46 54 61 72 82 82 76 67 57 48 42 39 34 26 18 20 32 43 51 58 61 57 53 53 51 50 51 50 46 42 40 42 43 40 37 38 41 45 49 52 53 53 53 54 56 56 56 59 61 62 64 65 62 58 57 53 48 44 42 41 37 30 25 24 26 29 33 37 37 37 37 40 46 55 60 61 59
39 35 31 32 36 37 39 45 47 48 56 65 69 75 85 88 83 76 68 59 52 48 45 36 24 19 28 40 47 53 57 57 55 55 55 53 49 47 46 43 41 39 35 31 29 32 34 38 42 45 43 38 36 42 53 57 58 61 62 58 54 48 40 36 36 36 35 34 33 32 33 31 25 21 19 18 21 25 29 31 32 31 33 41 52 59 60
35 36 37 39 40 38 40 49 55 58 69 83 86 82 83 85 81 75 70 63 54 45 41 35 27 21 26 37 43 48 53 56 56 56 57 56 51 43 39 39 39 36 30 28 30 34 36 39 42 43 40 33 30 37 48 52 51 53 52 45 38 33 28 22 20 23 30 36 36 32 32 33 31 28 24 20 18 19 21 25 29 31 31 35 42 50 55
39 41 41 39 40 40 42 52 61 66 76 90 95 89 83 79 76 74 72 67 58 48 39 33 29 27 29 35 41 47 52 54 54 56 59 60 56 47 39 37 37 34 30 29 31 33 34 37 38 37 34 33 33 37 42 43 43 43 42 39 36 32 26 23 25 28 32 35 37 37 39 40 39 38 37 31 22 17 16 17 19 23 27 28 30 35 42
41 42 40 38 39 40 42 52 68 78 83 89 95 92 84 76 73 74 72 66 59 51 42 34 32 35 37 39 41 46 49 50 51 56 62 62 58 52 46 42 38 33 30 30 31 29 30 32 33 30 29 33 37 37 36 37 40 41 38 33 28 22 17 20 29 36 40 44 48 48 49 51 54 56 53 44 31 22 19 19 18 20 23 24 22 22 27
41 43 42 39 40 41 43 53 70 82 86 87 88 85 80 74 70 69 68 64 59 53 48 48 52 59 62 60 53 47 46 48 52 57 62 61 58 55 52 47 41 35 31 30 29 28 28 28 27 24 24 29 35 39 41 42 42 39 30 19 13 12 16 23 33 43 53 60 62 60 59 62 66 64 57 48 38 31 27 25 24 23 22 22 20 18 19
50 52 48 47 52 54 53 60 71 78 82 85 82 77 74 73 70 69 67 64 60 58 59 63 70 76 78 77 67 55 49 50 53 57 61 61 58 55 52 47 41 37 33 31 29 28 28 27 25 24 24 26 32 42 47 44 37 29 20 11 7 10 15 22 33 47 56 57 57 59 63 65 65 59 50 45 42 38 33 28 26 24 23 22 20 18 16
71 74 69 69 73 71 68 73 82 84 84 83 79 73 69 68 68 68 67 69 75 80 81 82 84 84 84 84 78 68 62 59 58 59 64 64 59 54 51 46 41 37 34 32 30 29 29 26 22 22 23 25 32 40 40 31 21 16 12 7 6 8 12 19 30 45 53 53 53 59 63 62 60 55 47 41 40 38 33 27 25 24 23 21 18 16 15
83 90 89 87 84 81 82 88 91 90 87 87 86 85 82 79 77 73 68 68 76 83 84 87 89 88 87 87 82 75 71 70 67 65 67 66 61 55 49 43 38 34 31 31 30 29 28 25 22 22 23 26 32 36 33 26 23 22 17 11 7 6 8 13 19 28 35 38 40 44 49 50 52 52 46 40 38 37 32 28 24 22 20 19 17 17 18
89 98 100 92 82 82 89 89 85 84 89 95 98 98 97 96 95 88 76 69 69 71 75 83 87 84 85 90 88 82 80 80 75 69 67 65 60 54 48 42 37 33 31 30 29 29 27 25 23 24 26 29 35 38 34 31 30 27 18 11 8 6 7 10 12 14 18 20 22 24 26 28 32 38 40 38 35 32 28 25 23 21 19 19 18 18 18
99 102 99 88 81 84 91 90 87 89 95 99 100 99 99 100 97 89 79 77 77 76 79 86 87 82 84 90 90 84 82 82 78 73 68 63 56 49 44 40 38 36 33 30 29 30 29 26 25 28 32 35 40 42 39 35 31 24 14 8 7 6 6 7 9 11 12 13 12 12 13 13 18 24 28 29 28 26 24 23 22 20 18 17 17 16 17
100 98 93 90 89 91 93 92 91 91 93 96 99 100 101 100 93 83 82 89 92 90 90 94 91 85 86 92 91 83 80 81 80 75 68 60 52 46 41 38 37 35 33 30 30 31 28 23 25 35 42 44 43 41 38 36 34 25 14 8 9 8 7 7 7 8 9 9 8 9 10 10 11 14 17 21 23 24 23 21 20 18 17 17 17 16 16
96 95 93 93 92 91 92 92 88 84 87 95 100 99 99 99 94 89 92 98 98 95 94 96 95 91 92 96 94 85 81 82 81 73 64 55 49 43 39 37 35 34 32 31 31 31 26 22 25 35 44 46 44 40 35 33 31 23 12 7 8 9 9 9 8 7 6 7 7 9 9 8 8 11 16 20 23 24 23 20 19 18 19 18 18 17 17
98 93 88 87 86 85 86 87 83 79 84 93 99 99 98 96 94 95 98 100 98 95 93 94 96 95 95 97 95 88 84 84 79 66 55 51 47 41 37 35 34 33 33 33 32 29 26 25 29 36 42 44 42 37 31 27 23 16 8 6 8 8 9 10 10 8 6 6 6 8 8 7 7 11 17 21 23 23 21 18 19 22 22 20 20 20 21
92 85 79 79 79 78 78 77 76 76 81 88 96 99 96 90 91 96 99 98 98 97 96 94 95 94 95 99 99 92 85 83 75 61 50 46 44 40 38 38 37 36 35 33 31 29 27 28 34 41 45 43 39 35 34 33 29 21 12 8 8 9 10 11 12 11 8 6 5 6 7 6 5 8 14 18 21 22 22 20 21 22 22 21 22 24 25
81 79 78 77 77 77 75 74 75 80 84 87 93 97 94 89 92 98 99 97 99 100 99 97 97 95 95 99 99 91 83 80 73 61 52 49 48 47 46 43 40 38 36 34 33 32 33 37 42 47 46 43 41 41 41 40 36 28 18 11 10 11 13 14 13 12 10 8 6 5 7 8 9 8 9 12 16 21 24 26 27 25 23 21 22 25 29
Wind_Speed
14 16 17 20 21 22 22 23 25 27 29 31 31 33 32 28 28 28 24 22 22 22 22 21 20 18 14 13 12 12 14 15 12 9 9 8 8 8 8 6 3 3 3 5 5 5 7 12 19 17 15 24 33 34 38 34 19 13 18 21 21 19 16 15 21 27 29 27 23 29 35 34 32 28 21 16 22 28 23 13 10 13 11 9 9 4 5
14 15 17 19 20 21 22 23 25 27 29 32 32 33 33 29 28 28 26 27 29 27 26 24 19 15 11 11 13 13 14 17 16 13 12 11 10 10 9 6 2 1 4 7 5 6 8 8 16 15 14 24 27 19 26 30 19 14 14 11 19 20 12 11 17 15 17 20 16 19 26 29 29 28 25 21 17 19 22 19 12 12 14 13 10 4 6
15 15 16 17 19 20 22 23 24 26 28 30 31 33 33 30 29 28 26 29 33 32 29 26 19 14 13 13 15 16 15 16 16 14 13 10 9 10 9 5 4 4 6 8 7 7 8 7 7 8 12 19 18 16 25 27 17 15 10 5 15 18 6 4 9 8 10 13 12 16 23 29 29 26 24 25 22 18 19 20 12 8 12 16 14 11 11
16 15 15 16 17 19 20 22 23 24 26 27 29 31 31 30 30 29 25 26 32 33 29 25 20 17 16 15 16 16 15 15 14 14 14 11 11 11 7 4 5 6 7 7 7 7 8 10 6 3 10 15 17 23 30 26 17 13 8 7 16 19 7 2 2 10 15 17 19 22 28 31 30 25 20 18 20 21 21 20 15 10 11 14 16 16 16
17 16 15 15 15 17 19 20 22 23 25 26 27 28 29 29 29 29 27 25 29 33 30 25 22 18 16 16 16 16 15 14 13 13 13 12 13 12 7 6 8 7 6 5 6 7 9 10 5 2 5 14 21 26 27 22 17 13 11 13 17 17 8 2 1 11 14 14 17 20 24 26 24 21 16 13 18 22 22 19 16 15 12 10 14 17 18
18 17 16 16 15 15 17 18 20 22 24 24 25 26 26 26 26 27 26 25 28 33 31 28 26 21 15 14 15 15 14 13 13 12 11 12 13 10 5 4 5 6 6 4 4 4 7 8 2 5 5 19 25 25 22 17 14 14 14 16 15 13 8 3 2 10 12 11 13 14 16 19 18 18 16 14 19 23 20 14 12 16 16 11 13 18 17
20 18 17 16 15 15 16 17 18 21 23 24 24 25 25 25 25 25 24 24 26 29 29 29 30 26 19 15 14 14 13 12 12 11 9 10 11 7 4 4 4 2 2 4 6 2 3 3 2 8 11 22 24 21 17 11 12 15 15 15 11 8 9 8 4 6 9 11 14 14 14 16 19 21 15 11 16 20 17 11 9 13 14 12 14 18 15
21 19 17 16 16 15 16 17 17 18 21 22 23 24 25 26 27 26 24 23 23 25 27 29 30 29 25 20 15 13 11 9 8 8 8 9 8 5 5 5 3 1 1 5 6 4 4 2 6 10 10 14 17 17 16 13 13 14 14 14 8 5 8 8 3 4 4 7 16 19 16 15 19 22 17 11 14 17 15 12 11 10 11 13 17 20 18
22 20 18 17 16 16 16 16 16 17 18 20 20 23 25 25 26 27 25 23 22 23 24 26 30 31 28 25 20 16 13 9 5 6 8 8 8 8 9 9 3 2 1 5 7 7 4 5 9 9 8 8 8 13 19 17 14 15 15 11 6 5 6 5 3 5 6 5 10 18 21 19 19 22 19 14 13 14 13 14 13 11 11 19 25 24 20
22 21 19 17 16 16 16 16 16 17 17 18 19 21 23 22 22 24 24 23 22 22 22 24 28 30 29 27 26 24 20 14 8 7 7 8 10 10 9 10 5 1 1 5 9 6 3 8 10 10 11 7 5 12 18 13 13 20 18 8 5 7 7 3 4 7 7 6 3 11 21 18 15 20 20 17 16 14 11 13 15 13 12 18 23 22 18
22 22 21 18 17 17 16 16 17 17 17 18 18 20 22 23 23 23 22 22 22 21 22 23 25 26 27 28 28 26 21 15 11 9 8 8 10 8 6 9 9 4 1 3 8 6 6 10 6 5 8 4 6 16 17 9 12 19 15 6 7 10 4 3 5 7 7 4 3 8 15 8 8 18 19 19 20 16 10 11 14 15 14 13 15 18 20
22 22 21 20 17 16 16 16 16 17 17 18 18 19 21 23 23 23 22 22 22 21 21 21 21 22 24 25 27 26 22 16 12 10 9 8 8 4 3 10 11 5 1 3 4 2 6 6 1 2 4 4 11 19 17 15 16 15 9 6 9 9 3 2 6 7 6 4 3 7 9 4 9 16 15 14 17 15 10 9 9 12 14 13 14 16 19
22 22 22 21 19 16 16 16 15 16 17 17 18 18 19 20 22 22 22 21 21 21 20 19 17 18 19 21 23 24 22 16 11 9 6 6 6 3 2 7 8 4 4 4 2 3 7 5 2 4 6 7 13 16 13 18 21 16 11 9 9 8 4 3 7 7 5 4 3 5 7 8 11 11 9 10 12 13 13 12 12 13 13 12 15 15 15
23 22 21 21 21 18 16 16 15 16 16 17 17 16 16 18 20 21 22 21 20 21 21 19 17 16 17 19 20 21 20 15 10 7 6 7 7 4 4 5 4 6 6 4 2 6 7 3 2 6 7 7 12 13 10 15 21 18 14 10 8 9 6 4 7 5 4 5 5 7 8 9 10 8 8 10 12 15 19 15 15 17 15 11 12 13 14
23 22 21 21 21 20 18 16 15 15 16 17 17 16 15 17 18 19 21 21 19 18 19 19 18 17 18 19 19 20 20 16 10 6 7 10 9 4 3 4 4 6 6 3 2 5 5 2 5 5 4 4 8 10 9 12 17 17 15 9 5 7 7 5 5 3 3 5 5 6 5 4 5 6 7 10 12 15 22 20 14 16 18 16 12 12 14
23 23 21 21 21 21 20 17 15 14 15 16 17 17 15 15 16 17 19 19 19 17 17 17 16 17 18 18 18 19 22 23 17 8 7 11 9 4 1 2 4 6 6 5 5 5 4 4 6 4 3 4 5 6 5 10 15 15 13 8 3 5 7 5 3 3 3 3 3 3 2 3 5 6 6 8 10 11 18 19 12 12 17 18 17 16 14
24 23 22 21 20 20 20 19 17 15 14 15 17 17 16 14 14 15 16 17 16 14 12 12 13 15 17 17 18 19 21 24 22 16 15 16 12 5 2 4 6 6 6 6 6 5 5 5 5 4 5 5 4 4 5 10 14 14 12 10 5 4 7 7 4 1 2 3 3 2 2 3 5 5 4 5 6 8 12 11 10 14 17 17 20 21 19
23 23 23 22 21 20 20 20 19 17 15 15 16 18 17 16 14 13 14 15 15 12 9 10 12 13 15 16 18 19 20 22 23 20 19 17 13 8 5 4 6 6 5 5 4 5 5 4 4 6 5 5 4 3 4 9 11 11 12 12 7 4 5 6 6 3 1 3 3 2 2 4 5 6 5 4 5 8 11 9 10 17 19 18 20 22 22
22 23 24 24 22 21 20 20 20 18 16 15 16 18 18 17 16 14 13 14 15 11 7 6 8 9 11 12 13 14 15 19 22 22 21 19 16 11 6 4 2 3 4 2 3 6 7 4 3 5 5 4 3 2 2 5 7 10 14 13 9 6 4 5 7 7 1 2 3 3 4 5 7 8 7 6 5 6 9 10 12 14 16 18 20 21 22
21 22 23 24 23 22 21 20 20 19 17 15 15 17 19 19 18 16 14 13 13 10 5 3 4 6 7 8 8 9 10 12 16 19 22 23 21 14 7 4 3 2 3 0 2 4 7 6 3 3 4 2 2 1 2 4 5 8 12 11 10 8 6 5 7 8 4 3 5 4 4 7 10 10 8 8 6 5 6 9 12 13 13 15 18 21 23
20 21 22 24 24 24 22 21 20 20 19 17 15 16 18 20 19 17 16 15 12 8 5 4 3 1 4 5 6 7 8 10 13 15 18 21 23 21 14 8 5 3 2 2 2 1 3 7 5 3 3 2 1 1 0 3 5 6 9 10 9 10 8 5 6 8 6 5 7 5 6 11 13 10 8 8 7 7 7 8 10 12 12 12 15 19 22
19 21 22 23 24 24 24 22 21 21 20 19 16 15 16 20 21 19 18 17 15 10 8 6 5 4 2 3 4 4 4 6 8 10 13 15 18 21 19 11 4 3 3 3 3 2 1 3 4 3 2 1 3 3 2 4 5 5 7 9 9 11 8 3 5 11 9 6 8 9 11 14 15 12 11 9 8 8 9 9 10 12 12 11 11 13 16
19 20 22 23 24 25 25 24 23 22 21 20 18 16 15 18 20 20 19 19 18 13 11 8 6 7 7 7 5 4 2 3 5 4 7 9 11 16 19 12 4 2 1 2 3 3 2 1 1 2 1 2 2 3 4 5 4 5 6 6 7 10 8 4 5 11 10 8 10 13 15 17 17 15 13 11 11 10 10 10 11 11 11 12 12 12 12
19 20 22 24 25 25 25 25 24 22 22 21 20 18 18 18 18 18 18 20 20 16 11 7 6 8 9 9 7 6 6 3 2 1 4 6 6 10 14 12 7 4 3 3 4 2 2 4 2 1 2 3 3 3 4 5 5 4 5 5 7 9 7 5 7 9 9 10 13 14 16 18 18 15 13 13 13 13 13 12 12 12 13 13 14 13 13
20 21 22 24 25 26 26 26 25 23 22 22 21 20 19 20 20 19 17 18 19 19 16 12 11 11 10 8 8 9 9 7 2 0 4 6 3 3 8 12 11 7 3 4 5 3 3 5 4 2 3 4 4 5 5 3 6 8 7 8 10 10 8 6 7 8 9 9 11 12 12 14 16 14 13 14 14 14 15 15 15 15 15 15 15 15 14
22 23 23 25 26 26 27 27 26 25 22 21 22 21 19 20 21 20 18 17 17 18 19 15 10 9 8 6 6 8 10 9 6 3 5 5 3 1 4 9 13 11 6 3 3 3 3 4 5 3 3 6 7 6 6 3 3 6 9 9 10 9 10 10 8 8 10 10 10 10 9 9 12 14 15 15 15 15 16 17 17 17 16 16 17 17 17
23 24 25 26 27 27 27 27 27 26 23 21 21 21 20 20 20 19 18 18 16 16 14 8 4 4 8 8 6 7 11 11 10 8 6 3 2 2 3 7 11 11 8 5 4 6 5 3 3 3 2 6 10 7 5 3 3 3 8 11 10 7 8 10 9 9 11 13 12 11 9 7 8 11 13 15 16 17 17 16 16 16 16 16 17 17 18
24 25 26 27 28 28 28 28 28 26 24 21 20 21 21 20 19 19 18 17 17 17 16 14 11 9 10 8 6 8 12 14 13 10 8 6 3 3 4 7 9 7 5 6 5 7 7 4 3 2 1 2 7 7 3 2 4 4 6 9 10 8 8 8 9 9 10 13 14 12 10 9 9 9 11 13 15 16 16 16 17 18 17 17 18 18 19
25 26 27 28 29 29 29 29 28 27 24 20 19 20 21 20 19 18 18 18 17 18 19 19 16 12 8 6 5 8 14 16 13 9 9 7 4 3 4 8 9 6 3 4 3 6 7 4 2 3 2 2 3 5 5 6 7 8 7 7 9 11 11 10 11 10 9 11 13 13 12 11 11 11 12 13 14 15 15 15 17 18 18 18 17 18 19
26 27 28 29 29 30 29 29 29 28 25 21 19 18 20 21 20 18 18 19 19 18 19 19 16 11 8 6 6 10 13 14 10 8 7 4 3 5 8 10 10 6 3 2 4 7 7 4 3 3 4 4 5 6 8 7 7 8 9 9 10 11 11 11 13 13 12 12 13 13 13 13 13 14 14 14 15 15 15 15 15 16 17 16 16 17 18
27 28 29 29 30 30 30 30 30 28 25 22 20 18 18 20 20 18 18 18 18 18 18 19 16 12 8 6 7 12 14 12 9 8 5 2 3 6 8 7 7 8 6 4 5 8 7 6 6 5 5 5 6 7 9 9 7 6 8 10 10 10 10 10 12 12 13 14 15 15 15 16 16 16 16 16 16 16 17 16 15 15 15 14 15 16 17
28 29 30 30 30 30 30 30 30 28 25 22 20 18 18 19 19 19 19 19 19 19 18 18 17 13 8 5 8 14 15 12 8 6 4 3 4 5 3 2 4 8 8 6 6 8 8 8 8 8 7 6 6 7 10 11 9 5 5 7 9 10 9 9 10 11 12 13 14 15 16 16 16 17 17 16 16 17 17 16 15 15 15 14 14 14 15
30 30 30 30 30 30 30 30 29 27 25 22 20 19 18 17 18 19 19 19 19 19 19 18 17 13 8 5 6 12 16 13 8 5 5 4 5 6 5 3 3 5 7 7 7 9 10 9 9 8 8 7 7 8 10 12 10 6 5 6 7 8 9 10 10 11 11 11 12 12 13 13 14 15 16 15 16 16 16 15 15 16 17 16 16 15 15
31 31 31 30 30 30 30 29 28 26 24 22 20 18 17 17 18 19 19 19 19 19 19 18 17 14 10 6 5 9 13 12 9 7 6 5 4 5 5 5 5 4 4 5 5 6 7 8 9 8 7 7 8 8 9 12 11 8 6 6 6 7 9 11 11 10 9 9 10 11 11 12 12 13 13 13 12 13 14 13 14 15 17 18 19 18 17
32 31 31 31 31 31 30 29 27 24 22 20 19 17 17 18 18 19 19 18 19 19 19 18 18 16 13 9 8 9 12 12 9 7 6 5 4 4 4 5 7 6 5 5 5 4 4 6 9 8 7 8 8 6 4 7 11 11 9 7 6 8 10 10 9 8 7 8 10 11 11 12 11 11 11 10 11 12 12 13 14 15 16 17 19 19 19
32 32 32 32 32 31 29 27 25 22 20 18 17 16 16 16 17 18 19 18 18 19 19 19 19 17 15 12 10 11 12 11 8 7 7 7 6 5 4 5 7 7 7 7 6 5 5 6 7 8 7 8 9 7 3 5 9 11 10 7 5 6 7 7 7 7 6 6 8 9 10 11 11 11 11 11 12 13 13 13 14 15 16 17 18 18 18
33 33 32 32 31 29 27 25 23 20 18 17 16 15 15 14 15 18 18 18 18 18 19 21 21 17 16 16 13 12 11 10 8 7 7 7 6 5 6 7 7 6 6 7 6 5 6 7 7 9 8 7 8 8 6 5 6 6 7 6 5 6 7 9 10 11 11 10 10 11 11 12 12 13 13 13 14 15 15 14 14 14 15 16 17 18 18
33 32 31 30 28 26 23 22 21 19 18 17 16 16 15 14 16 18 18 17 18 19 20 23 21 16 16 19 17 13 11 9 8 6 5 5 5 5 6 8 9 8 8 8 7 7 7 7 8 9 7 6 7 9 8 5 3 4 5 5 6 8 10 12 14 15 15 15 15 16 16 15 14 13 13 13 14 14 14 13 13 14 15 15 16 17 18
31 30 29 28 25 23 21 20 20 18 16 16 17 17 16 15 17 17 16 16 17 18 20 22 19 14 17 20 17 14 12 12 9 7 5 4 3 4 6 7 9 9 8 7 6 7 7 8 9 10 9 6 5 10 11 8 5 6 7 7 9 10 12 13 14 16 16 16 17 17 17 16 14 13 12 12 12 12 11 10 11 13 13 14 15 17 18
28 27 26 25 23 20 18 19 19 17 15 15 16 16 17 16 16 15 14 15 16 16 17 17 15 11 15 19 18 16 16 15 10 8 7 6 4 4 5 5 6 7 7 7 6 6 6 7 8 9 9 6 3 8 12 11 10 10 10 10 12 14 14 13 14 16 17 17 16 15 15 15 14 13 12 12 12 11 11 10 10 10 10 10 11 13 16
25 25 24 23 21 19 18 17 17 16 14 14 15 16 16 16 14 13 13 14 15 15 14 12 10 7 9 14 16 15 16 15 12 9 9 9 7 7 7 6 5 6 7 6 5 6 7 7 7 7 7 4 3 5 9 11 10 10 10 12 14 15 14 13 14 16 17 16 15 15 16 16 16 15 14 14 13 13 13 13 13 12 11 9 9 9 12
23 24 23 21 19 18 18 16 15 14 14 14 14 15 16 15 14 14 14 13 13 12 8 6 6 5 5 7 11 14 15 14 12 12 12 10 8 8 9 7 6 7 6 4 4 6 7 7 7 7 6 5 3 3 6 9 8 8 10 11 12 12 12 12 14 16 17 16 16 16 17 19 19 19 17 16 15 14 14 14 14 13 12 11 9 9 10
21 21 20 17 16 15 15 14 13 13 12 11 12 12 14 14 12 11 11 10 8 7 5 6 9 10 8 7 9 12 14 14 14 14 14 12 9 9 10 9 8 8 7 6 6 7 7 7 7 6 5 6 5 5 6 7 7 8 9 9 10 11 11 12 13 15 16 16 15 15 17 19 20 20 19 17 16 15 15 15 15 14 13 12 11 10 10
16 16 15 13 12 13 12 11 10 10 10 10 11 11 12 12 11 10 10 8 7 7 7 10 13 12 10 9 11 12 13 14 16 16 14 13 11 10 11 10 9 8 9 9 10 9 8 8 8 7 5 5 6 7 6 5 5 5 6 6 8 10 11 11 12 14 15 15 13 14 16 17 18 18 18 16 16 15 15 14 13 13 12 12 11 10 10
12 11 12 11 11 10 9 7 8 9 9 9 11 12 11 11 12 12 12 12 13 14 13 11 11 10 10 10 12 14 15 15 16 16 14 13 14 14 13 10 7 6 8 10 11 10 8 7 6 7 6 5 6 8 7 4 4 6 6 7 8 9 9 9 10 11 11 11 11 12 13 15 16 17 17 16 15 14 13 11 10 9 10 10 9 10 10
8 9 11 12 10 9 8 7 8 9 9 8 9 11 11 12 13 14 12 12 14 15 14 11 10 10 10 11 11 14 16 15 16 16 14 13 14 16 15 12 8 8 9 10 11 10 8 6 3 3 4 6 8 8 7 5 6 7 7 7 8 7 7 6 6 7 7 7 8 8 9 10 11 13 14 13 12 11 10 8 8 8 9 9 9 9 10
7 9 11 10 8 8 9 9 8 9 10 11 12 13 13 14 16 15 11 10 11 13 12 11 10 10 10 11 11 14 18 19 19 18 16 14 13 13 12 12 13 13 12 12 11 10 9 7 4 3 6 10 10 8 6 5 6 7 6 7 7 7 6 5 4 5 6 6 6 6 6 7 7 8 9 9 8 8 7 7 7 8 8 8 8 8 8
10 10 10 10 10 11 12 11 11 11 11 12 15 17 17 17 15 12 10 11 12 13 12 11 11 11 10 10 10 13 16 20 22 20 16 14 14 12 11 11 13 14 14 13 10 9 8 6 4 5 8 10 10 7 6 6 7 7 6 6 7 7 7 5 5 5 6 5 4 4 4 5 5 6 6 6 6 6 6 6 6 7 7 7 7 7 6
10 10 10 11 13 14 13 13 15 14 13 13 15 17 18 18 15 12 11 13 14 13 11 9 9 11 11 10 10 11 11 16 19 17 14 13 13 13 12 12 13 13 13 12 10 7 5 6 5 6 8 10 9 8 7 8 8 7 5 4 5 7 7 6 7 7 5 4 3 3 3 4 5 6 6 6 6 6 6 6 6 6 6 6 6 6 5
9 11 11 12 14 15 14 16 18 18 16 14 13 13 15 17 16 13 12 12 10 10 10 8 8 9 10 9 9 8 11 17 15 11 12 15 14 10 10 12 12 12 11 10 9 6 6 7 7 9 12 11 9 6 4 6 7 6 4 3 4 5 5 6 7 6 4 4 4 4 4 4 4 4 5 5 5 6 7 7 6 6 6 6 6 5 5
11 13 13 14 16 17 17 19 21 20 19 15 11 10 13 16 14 12 11 8 5 6 9 9 7 7 7 6 6 7 13 17 14 9 11 14 13 9 8 9 8 9 11 11 8 6 6 7 9 12 13 10 5 2 2 6 9 9 6 4 3 3 2 3 4 3 2 3 5 4 4 3 2 1 2 3 4 5 6 6 6 6 6 6 6 5 5
12 14 14 15 16 17 19 20 20 20 19 16 10 10 12 13 12 11 9 5 3 4 6 5 4 4 4 3 3 3 7 11 13 11 9 9 8 7 7 8 8 8 8 7 3 3 6 9 11 12 10 6 3 2 2 5 8 10 8 5 3 1 1 3 2 2 2 3 4 4 3 2 1 0 1 1 2 3 4 5 6 6 5 5 5 5 5
Wind_Direction
337 336 341 346 349 350 350 351 353 355 359 2 5 8 9 10 13 12 9 12 14 9 7 9 6 359 348 342 353 360 359 8 25 40 41 44 44 37 43 66 102 153 226 258 248 281 291 241 225 227 223 202 187 187 197 194 178 180 203 218 221 224 245 229 185 185 196 195 194 202 207 214 222 225 222 208 203 207 210 212 199 187 185 171 163 180 194
339 335 337 341 347 349 349 350 351 353 357 359 3 7 7 9 15 15 14 17 18 15 12 13 12 7 359 356 6 17 22 27 37 41 33 33 39 37 38 37 18 273 287 292 290 306 304 237 217 234 231 198 187 195 201 191 181 182 187 201 211 217 232 198 168 165 187 194 193 194 201 211 219 221 217 211 210 209 206 204 199 197 195 177 163 182 196
342 337 334 336 343 347 347 349 349 352 355 357 1 4 3 8 15 18 19 21 21 20 17 17 15 12 16 20 18 23 30 32 37 35 25 26 35 34 33 21 339 329 328 313 305 303 288 258 233 228 206 193 194 194 186 182 181 181 175 183 206 213 239 188 169 151 168 193 199 193 197 204 210 212 206 206 217 223 209 196 187 200 205 192 182 181 182
345 341 334 332 338 343 346 347 348 351 354 356 1 3 2 7 12 15 21 24 23 24 24 22 18 10 13 21 23 25 29 32 35 29 23 24 25 21 20 14 353 345 339 315 289 272 256 262 276 208 183 187 185 178 179 186 196 200 209 221 213 218 235 8 212 189 187 200 203 197 197 199 203 205 199 206 225 232 222 203 191 203 210 199 194 190 185
348 345 339 332 333 339 344 346 347 351 352 356 1 1 2 9 12 14 20 21 18 22 27 28 23 14 4 6 16 22 23 28 33 28 23 22 21 20 13 9 5 338 316 304 267 237 224 232 258 313 205 185 177 177 185 196 206 214 216 206 210 217 215 18 269 191 192 208 205 199 199 199 201 203 208 230 235 226 218 206 202 213 216 201 193 194 192
351 348 344 337 332 335 342 345 348 350 351 356 2 1 0 8 15 17 20 20 16 20 27 30 27 24 12 2 9 17 22 26 24 22 23 19 18 20 8 350 341 304 284 292 277 225 193 198 248 1 171 176 176 183 191 197 205 210 205 195 200 211 216 272 239 182 185 197 193 196 203 203 206 213 223 237 227 215 207 199 204 216 219 208 186 186 189
354 350 347 342 334 332 337 344 349 351 352 356 0 0 0 6 15 19 21 24 21 20 25 29 29 28 27 19 10 9 19 24 14 11 14 16 17 13 348 321 313 297 228 273 297 277 168 187 54 61 125 163 176 187 192 190 194 200 196 187 188 208 232 260 268 177 182 196 194 194 199 203 209 213 220 232 220 208 200 193 198 208 215 215 192 181 183
356 353 350 345 337 332 331 339 348 351 353 356 358 1 4 6 9 11 16 25 27 22 23 29 31 31 33 32 20 4 6 13 17 15 6 10 14 353 352 5 354 59 158 261 259 201 182 158 103 93 118 158 176 195 198 180 175 188 183 176 185 225 232 243 251 131 134 195 202 199 200 207 211 213 219 229 220 207 201 205 211 205 198 194 186 180 182
356 355 353 348 341 335 330 333 342 348 352 356 358 3 7 8 7 5 8 19 26 24 24 28 33 34 33 33 28 22 20 24 41 34 10 5 352 341 16 46 71 161 219 232 193 173 179 147 127 124 132 132 145 188 195 180 175 185 179 180 213 216 197 210 189 128 107 133 191 204 210 214 221 225 228 230 223 214 212 217 222 219 193 178 179 183 184
354 356 356 352 345 340 332 330 335 342 348 353 358 2 5 7 8 6 8 16 22 25 25 27 32 34 33 31 30 30 31 35 53 53 29 9 343 341 24 51 58 114 183 172 161 153 148 148 141 141 151 133 113 177 192 186 178 182 181 193 216 171 145 127 138 142 132 94 89 205 208 211 225 231 229 226 222 217 219 227 226 224 209 186 184 186 183
350 354 356 355 351 344 336 330 330 335 342 348 355 1 2 4 7 6 7 13 19 23 25 24 28 31 33 35 35 33 30 31 43 46 31 13 351 346 20 33 30 41 40 133 141 142 144 150 150 157 178 187 146 167 181 170 156 170 176 173 165 161 141 74 116 138 152 122 52 188 193 199 225 227 229 228 225 221 222 229 226 222 221 209 194 187 182
346 350 354 356 354 349 341 333 327 328 335 342 350 357 360 1 3 4 5 8 12 20 26 27 26 26 31 37 39 37 32 27 31 34 29 24 15 5 12 14 19 37 52 54 80 143 168 170 234 238 208 187 150 159 172 168 157 164 179 175 161 167 184 113 120 120 141 168 166 169 176 179 199 213 225 225 222 222 209 191 193 207 216 211 196 185 183
346 345 349 353 355 352 346 338 330 326 327 332 342 350 356 358 358 2 6 5 6 12 20 29 32 27 28 37 41 40 38 32 28 27 23 28 37 61 51 11 19 86 117 71 54 219 212 222 256 187 179 173 159 155 161 173 176 179 191 197 185 188 201 114 111 108 130 182 170 142 146 142 156 182 204 205 209 214 199 164 147 170 190 197 202 199 189
348 344 345 349 353 353 349 343 336 328 322 322 331 340 349 354 354 358 4 4 5 10 14 22 33 33 28 31 37 40 40 38 32 26 27 36 41 61 74 38 62 122 111 83 144 199 209 214 136 151 161 171 173 162 148 169 185 191 197 204 207 207 199 115 99 100 140 168 133 112 128 137 146 164 184 191 196 205 205 185 154 162 172 173 194 203 187
349 345 343 345 350 353 351 346 341 334 323 317 321 328 338 346 350 354 360 360 2 10 14 16 25 34 32 28 28 32 34 34 31 24 32 37 32 35 66 64 103 124 103 85 162 196 199 119 86 119 142 151 167 164 154 169 183 193 200 204 210 204 182 125 89 75 136 154 120 104 120 132 150 167 184 190 187 194 203 197 169 166 177 175 180 195 188
349 347 344 342 346 350 351 348 343 338 329 318 314 318 325 334 342 348 353 356 359 5 10 12 19 30 35 35 31 29 27 25 26 32 42 39 34 28 67 110 133 131 125 137 159 174 162 93 62 58 64 88 143 158 175 188 185 186 194 195 185 197 193 174 124 79 99 127 106 119 163 149 151 167 192 198 187 183 194 199 193 184 186 189 195 205 209
347 347 346 342 341 345 348 348 344 340 335 324 314 311 314 319 329 337 343 350 357 359 2 12 20 27 34 38 37 36 30 22 21 26 28 26 26 34 94 155 159 147 142 142 133 126 120 94 60 40 57 76 118 149 178 186 177 176 188 193 181 195 209 204 192 102 59 87 96 124 196 190 176 177 183 192 192 184 183 193 214 211 202 203 209 213 221
345 345 346 344 341 340 341 344 344 341 337 331 319 311 309 309 314 324 330 339 349 354 357 12 21 22 28 35 36 36 35 26 21 23 25 23 22 31 63 138 170 159 142 132 98 63 62 69 38 22 44 76 92 106 154 174 177 183 195 198 194 201 212 210 214 227 50 83 108 141 171 184 181 176 179 187 190 192 190 194 212 214 211 214 214 217 226
345 345 344 344 342 339 337 338 340 340 338 335 325 316 310 306 306 312 318 326 337 343 343 2 17 17 19 28 34 38 39 33 27 24 24 26 23 21 41 87 144 156 140 116 53 43 40 37 16 13 31 79 96 71 109 165 191 201 200 203 212 220 217 218 220 222 226 79 117 140 157 176 176 175 186 194 183 189 202 208 217 220 220 220 215 213 221
345 344 343 342 341 340 337 334 334 336 336 335 329 320 313 306 302 304 305 311 326 337 331 329 7 22 17 15 25 42 55 52 42 30 22 23 22 16 20 48 58 150 167 48 20 47 38 33 29 2 7 54 114 83 79 124 165 192 200 208 218 219 216 222 216 215 218 167 143 136 158 175 173 174 184 191 194 209 217 217 224 229 230 231 226 219 219
341 343 342 342 340 339 338 334 331 330 332 333 332 325 315 308 303 302 300 300 309 324 328 300 283 3 28 10 5 25 44 49 44 34 24 23 21 12 5 11 25 47 86 52 54 104 24 20 26 9 345 325 217 276 346 138 143 166 189 197 202 203 210 229 213 204 206 186 173 178 184 175 171 176 188 196 208 224 231 230 232 232 231 234 232 229 230
338 339 339 340 340 338 337 335 331 328 327 327 329 327 317 309 306 304 300 298 299 307 319 300 253 231 259 312 326 355 35 47 39 21 14 21 19 6 357 353 4 29 51 71 90 133 162 9 16 11 352 250 239 265 235 160 130 133 166 180 186 188 193 223 212 201 204 202 187 185 185 183 184 190 200 212 218 217 223 230 232 234 233 230 230 234 237
332 335 336 337 338 337 335 334 332 328 324 323 323 323 316 308 306 304 300 295 294 298 311 308 266 239 243 257 279 294 309 26 36 3 349 11 19 2 352 350 345 327 322 122 110 121 161 170 324 303 246 187 225 240 206 184 150 119 134 156 173 175 169 150 168 183 187 178 170 175 183 189 194 199 205 214 213 206 209 219 227 234 234 230 233 240 242
325 330 332 333 335 335 334 333 331 328 324 321 319 319 316 308 303 302 298 293 291 293 296 293 281 271 256 247 251 253 253 280 6 355 320 345 11 0 350 349 344 318 273 184 147 133 156 163 170 258 198 172 167 160 173 200 209 183 148 139 156 165 161 146 156 169 170 160 158 170 185 192 194 197 202 208 211 210 211 217 226 235 237 234 235 238 240
319 324 328 330 332 333 332 331 330 327 324 320 317 316 315 310 305 304 302 295 292 290 284 278 283 284 265 241 240 239 231 229 218 296 314 315 331 3 347 341 340 334 294 199 171 152 147 161 166 149 155 175 163 126 123 187 224 208 185 155 154 170 182 179 169 170 173 172 166 169 183 195 199 204 209 212 216 221 223 227 234 238 241 241 239 239 241
315 321 325 327 329 330 329 329 328 325 323 320 315 311 311 310 310 311 309 302 294 288 284 281 280 277 265 251 244 231 218 211 212 243 290 289 262 249 325 328 331 328 309 254 193 163 145 166 193 200 186 193 184 136 112 135 202 216 206 178 158 173 194 193 183 176 177 181 181 176 176 189 203 214 222 225 226 229 232 235 238 241 243 245 243 242 243
314 319 323 325 326 326 326 326 325 323 322 319 314 309 308 309 310 310 308 303 295 288 284 271 221 239 279 284 261 218 203 201 209 222 233 231 220 243 276 304 320 320 302 275 233 187 157 144 187 208 235 209 194 169 126 133 164 224 221 195 169 166 190 190 185 183 181 182 185 187 191 199 209 220 228 233 235 237 236 234 234 235 239 243 245 246 247
312 316 319 321 322 323 323 322 322 321 319 317 313 307 305 307 309 307 304 299 291 283 277 264 248 261 284 278 240 205 199 199 203 215 224 223 237 272 275 287 302 303 288 284 256 189 161 128 141 178 307 245 193 175 151 186 198 213 224 206 188 189 203 198 187 185 188 190 194 200 210 221 229 233 235 236 237 237 237 235 233 234 239 245 250 252 251
310 313 316 318 319 320 320 320 320 319 318 316 311 306 303 304 305 303 300 297 292 284 278 273 268 270 276 264 230 214 208 204 204 218 234 243 267 304 301 295 293 283 267 283 254 179 160 134 135 184 245 275 224 210 211 213 212 212 212 205 198 204 218 221 210 206 207 203 203 209 218 225 231 236 239 240 239 239 242 245 244 244 244 245 248 250 249
309 311 313 315 316 317 317 317 317 317 316 315 309 304 303 302 301 302 300 297 295 291 286 282 275 266 265 266 243 215 202 198 205 225 235 242 299 318 311 299 283 253 208 221 220 193 182 184 192 216 240 248 246 234 216 207 215 215 205 199 198 204 215 221 218 218 221 216 211 215 223 228 233 238 241 244 246 250 255 258 258 255 248 239 237 241 243
308 309 311 313 314 314 314 315 315 314 314 313 309 303 300 298 299 302 300 295 295 296 292 288 281 272 269 262 223 195 183 187 208 227 230 237 290 296 301 290 246 216 205 216 220 210 205 206 209 218 231 233 228 216 204 202 208 209 203 206 210 210 212 218 219 221 227 229 227 229 232 234 238 241 244 249 254 258 261 262 260 256 249 239 232 232 235
306 308 310 310 310 311 312 312 313 311 310 309 306 298 294 296 297 296 291 288 289 289 286 286 285 278 266 245 210 192 187 195 222 238 243 262 260 249 247 229 217 223 229 231 230 230 228 219 213 218 230 232 219 207 204 206 203 189 186 208 218 217 218 224 224 223 227 232 235 237 240 242 244 246 249 252 254 255 255 256 254 252 249 244 236 229 228
306 307 307 308 308 310 310 310 309 309 307 306 303 295 290 291 291 289 286 283 280 278 277 278 280 273 260 250 224 205 203 212 231 237 226 225 221 213 211 227 249 252 247 241 246 253 241 220 214 227 236 234 229 225 220 214 206 194 195 210 219 221 222 225 223 219 221 227 230 233 239 242 243 246 247 247 248 249 249 247 246 246 245 243 240 234 228
305 305 305 307 307 308 309 308 307 307 306 303 299 292 287 286 285 284 283 280 276 274 274 273 270 263 250 233 208 201 204 206 208 207 201 199 210 223 237 241 234 239 243 230 232 251 244 222 219 228 230 228 233 235 226 217 213 213 215 217 221 224 222 218 213 210 216 228 230 229 233 236 237 241 243 241 242 246 246 243 241 242 242 241 240 239 236
303 303 304 306 307 307 307 306 305 305 303 299 293 288 283 283 282 281 279 276 270 268 269 268 265 262 252 231 203 195 194 191 193 204 206 202 213 231 242 237 229 233 245 239 230 243 246 224 218 221 223 226 226 217 203 212 216 217 221 224 219 217 219 221 220 220 226 232 231 229 233 237 239 242 242 239 239 244 245 242 239 240 242 243 243 242 242
301 302 304 305 306 306 306 304 304 303 299 293 289 283 278 279 281 280 277 273 268 265 264 263 259 254 250 242 221 199 193 193 199 214 216 209 209 215 227 241 244 243 246 246 241 244 250 241 232 231 232 233 230 220 202 213 218 218 224 232 224 218 232 253 269 272 263 247 237 237 241 244 245 247 247 245 245 247 248 245 241 239 241 244 247 246 246
299 301 302 303 303 303 303 302 300 298 293 287 281 275 272 273 275 275 274 272 269 267 265 263 257 248 246 245 231 202 194 203 207 206 206 208 215 229 238 242 241 238 243 250 252 254 259 255 243 236 238 247 250 240 222 214 218 221 229 240 246 258 276 287 290 289 287 282 271 260 253 252 253 254 253 251 249 249 248 248 246 245 244 244 247 248 248
298 299 300 299 300 300 300 298 296 294 290 285 277 271 269 269 269 271 272 271 268 265 263 262 258 246 240 238 223 199 200 216 208 193 193 200 211 230 237 235 234 237 250 262 261 253 250 246 237 238 252 273 261 236 221 219 241 244 244 257 273 287 294 292 287 285 284 282 278 271 267 266 266 262 259 257 254 252 250 249 249 249 246 245 246 248 250
297 297 297 296 297 297 294 292 292 291 287 283 279 275 272 270 270 274 277 276 271 266 263 263 261 249 240 234 216 198 211 224 209 189 195 197 198 220 229 231 236 242 251 257 246 233 237 242 241 247 265 284 253 216 209 214 237 244 250 267 284 296 301 295 286 282 277 272 270 270 267 265 262 258 256 256 255 256 259 259 257 253 248 244 245 247 250
295 294 293 292 293 292 288 285 286 288 284 279 277 275 272 271 273 277 277 275 273 269 265 266 265 251 239 236 223 206 212 221 212 194 199 197 184 202 223 232 238 242 250 251 236 227 239 248 248 252 263 273 233 199 201 209 224 235 247 269 283 289 290 283 275 273 271 267 264 262 258 254 252 252 253 258 264 271 277 277 271 264 257 252 250 248 247
291 290 290 290 289 287 283 279 279 284 285 278 272 271 272 273 274 274 270 269 272 274 274 275 274 258 243 244 235 216 209 216 220 216 216 215 210 215 228 240 246 249 254 251 235 232 243 253 260 265 258 240 196 196 208 217 226 238 256 275 279 276 274 271 268 269 269 266 264 261 257 253 251 251 255 262 272 280 282 281 280 277 273 270 267 259 251
288 287 287 288 287 285 283 280 276 278 280 274 267 267 270 271 272 272 268 268 272 273 275 288 296 296 295 270 244 222 211 215 222 222 223 226 230 233 235 235 238 245 246 230 215 230 242 249 258 258 236 210 197 209 217 223 238 259 275 280 272 263 262 265 265 263 262 262 262 260 257 253 252 253 257 263 269 273 276 278 279 279 277 274 267 255 247
287 286 286 289 290 288 287 284 277 273 273 269 262 261 264 268 274 274 269 271 277 273 279 310 310 300 295 283 250 223 209 207 212 219 225 229 232 236 236 233 234 241 238 224 224 238 247 249 251 246 224 209 208 212 220 236 261 279 283 273 260 255 258 261 259 258 258 259 259 256 254 252 253 254 256 259 262 266 270 273 275 276 277 274 264 250 242
282 284 290 298 301 298 296 290 274 264 263 261 259 262 267 272 279 278 268 267 264 250 264 303 313 302 288 275 252 225 206 201 205 212 221 224 222 225 231 235 241 244 239 231 232 239 249 251 244 235 229 224 217 215 227 259 295 307 299 275 257 253 252 250 249 250 251 253 255 256 255 254 255 258 260 262 264 268 271 271 270 270 269 265 257 249 245
275 284 297 304 306 304 302 290 267 263 267 266 267 274 279 283 288 284 271 262 257 251 255 280 301 300 292 277 244 215 203 206 210 212 216 222 222 220 221 226 238 246 241 236 232 234 244 252 239 223 224 229 224 223 235 267 320 332 323 301 279 265 252 243 241 243 245 249 254 255 253 252 253 256 261 266 270 271 270 264 258 256 256 254 250 247 247
268 277 286 295 304 302 292 277 265 267 270 264 260 262 263 263 266 264 255 251 254 254 257 273 286 286 293 293 261 219 207 211 216 214 214 221 224 220 218 221 232 244 245 239 231 229 237 249 248 224 223 227 228 235 249 285 324 326 312 296 285 273 256 242 242 247 252 256 256 253 253 252 251 252 257 262 265 262 255 245 238 238 243 246 245 244 245
252 266 275 287 298 292 285 286 285 278 272 265 257 251 248 250 253 254 255 263 267 265 269 282 287 281 284 286 262 224 208 208 214 212 209 212 218 218 216 221 231 238 238 233 231 239 249 248 230 211 220 224 228 238 258 301 332 327 303 283 276 268 255 244 243 248 252 251 251 256 262 260 253 251 252 253 253 249 240 232 228 227 231 236 238 238 240
241 261 273 282 286 284 289 297 297 290 283 274 262 252 249 252 253 253 260 272 274 273 277 285 289 287 288 281 261 237 218 211 211 208 203 206 216 218 214 219 230 235 235 238 248 262 261 242 214 203 213 219 228 247 277 304 318 313 292 273 262 251 243 237 234 238 246 251 253 261 266 259 256 257 254 250 249 246 236 228 222 220 221 226 231 236 240
246 260 268 276 283 291 300 302 297 297 300 290 272 257 250 248 246 250 263 270 268 267 273 280 283 285 286 282 278 269 236 208 202 200 197 203 214 217 214 221 231 234 236 249 269 271 238 214 217 223 219 222 237 260 291 311 309 297 283 270 255 239 227 221 223 230 238 247 253 263 269 269 267 260 249 247 250 241 228 223 222 218 219 224 230 235 242
259 266 270 273 281 291 300 298 295 299 304 298 283 263 248 242 240 248 265 270 264 261 266 269 268 270 272 275 277 255 207 189 189 198 202 204 209 212 213 221 234 242 248 262 274 255 211 200 216 226 226 232 249 272 324 346 331 314 303 281 257 240 219 212 220 227 233 242 247 251 259 269 269 245 218 220 230 224 218 220 221 217 221 229 232 230 235
272 277 280 280 282 287 292 293 293 297 300 296 281 252 239 239 242 250 263 273 275 265 257 246 234 240 253 262 257 217 190 184 188 192 192 197 207 217 219 224 239 252 255 257 254 224 195 188 199 211 219 228 242 265 10 3 345 335 327 301 269 260 245 232 235 237 239 242 249 253 257 272 289 233 171 190 212 214 215 222 224 219 221 229 231 229 233
286 289 288 286 285 285 287 287 288 293 297 294 273 234 226 236 244 248 253 266 284 257 238 222 216 236 245 233 223 204 185 184 184 175 161 162 170 178 199 229 254 266 264 260 248 165 161 175 190 202 209 213 219 243 314 337 337 332 321 303 288 306 300 275 274 282 255 247 260 277 287 292 318 54 129 167 204 211 217 226 231 230 230 234 234 230 226